Simultaneous Nadir Overpasses (SNOs) Predictions

Prediction of SNOs between METOP-A and NOAA-19 Satellite Orbit:

Table of predicted SNOs for the next 14.0 days since TLE Epoch: 7/10/2020
Index Date (METOP-A) Time (METOP-A) Lat,Lon (METOP-A) SZA (METOP-A ) Date (NOAA-19) Time (NOAA-19) Lat,Lon (NOAA-19) SZA (NOAA-19 ) Distance(km) Time Diff (sec)
1 07/16/2020 13:59:59 80.58, -16.54 59.53 07/16/2020 13:58:50 80.60, -16.42 59.54 2.77 69
2 07/16/2020 14:50:39 -80.61, 151.11 120.43 07/16/2020 14:49:55 -80.59, 151.04 120.46 2.45 44
3 07/16/2020 15:41:20 80.60, -41.69 59.56 07/16/2020 15:40:50 80.59, -41.72 59.55 0.85 30
4 07/16/2020 16:32:01 -80.60, 125.63 120.44 07/16/2020 16:31:55 -80.58, 125.74 120.45 2.58 6
5 07/16/2020 17:22:42 80.59, -67.18 59.56 07/16/2020 17:22:50 80.58, -67.02 59.56 2.88 8
6 07/16/2020 18:13:23 -80.59, 100.15 120.44 07/16/2020 18:13:56 -80.59, 100.08 120.43 1.13 33
7 07/16/2020 19:04:04 80.57, -92.67 59.56 07/16/2020 19:04:51 80.59, -92.68 59.58 1.62 47
